K7JKM Weather Reports


time (UTC)temp
C
wind
direction
speed
KPH
gust
KPH
rain 1hr
cm
rain 24hr
cm
rain mn
cm
humidity
%
barometer
mb
20220629030023 19 316 0.0 8.0 0.00 0.00 0.00 51 1020.6
20220629024525 20 217 0.0 8.0 0.00 0.00 0.00 50 1020.5
20220629023035 20 321 3.2 11.3 0.00 0.00 0.00 49 1020.6
20220629021536 20 20 0.0 9.7 0.00 0.00 0.00 50 1020.5
20220629020037 21 8 4.8 11.3 0.00 0.00 0.00 47 1020.4
20220629014541 21 310 0.0 9.7 0.00 0.00 0.00 46 1020.3
20220629013045 21 227 0.0 11.3 0.00 0.00 0.00 44 1020.2
20220629011549 22 195 1.6 8.0 0.00 0.00 0.00 41 1020.3
20220629010053 22 318 1.6 9.7 0.00 0.00 0.00 41 1020.3
20220629004536 23 206 1.6 9.7 0.00 0.00 0.00 41 1020.4
20220629003039 22 210 0.0 8.0 0.00 0.00 0.00 41 1020.5
20220629001544 22 192 1.6 11.3 0.00 0.00 0.00 41 1020.7
20220629000048 22 304 1.6 11.3 0.00 0.00 0.00 39 1020.7
20220628234552 22 185 0.0 9.7 0.00 0.00 0.00 42 1020.7
20220628233059 22 202 1.6 11.3 0.00 0.00 0.00 43 1020.8
20220628231611 22 216 1.6 12.9 0.00 0.00 0.00 44 1020.7
20220628230102 22 200 4.8 11.3 0.00 0.00 0.00 42 1020.8
20220628224503 22 226 3.2 11.3 0.00 0.00 0.00 44 1021.0
20220628223014 22 216 1.6 9.7 0.00 0.00 0.00 44 1021.0
20220628221510 22 106 3.2 16.1 0.00 0.00 0.00 45 1021.1
20220628220015 22 180 3.2 12.9 0.00 0.00 0.00 46 1021.1
20220628214518 23 212 1.6 11.3 0.00 0.00 0.00 44 1021.1
20220628213030 22 210 3.2 9.7 0.00 0.00 0.00 43 1021.1
20220628211533 22 46 3.2 14.5 0.00 0.00 0.00 45 1021.0
20220628210030 21 18 3.2 12.9 0.00 0.00 0.00 47 1020.9
20220628204537 20 162 1.6 9.7 0.00 0.00 0.00 50 1020.9
20220628203140 20 260 1.6 9.7 0.00 0.00 0.00 49 1021.0
20220628201531 20 205 3.2 12.9 0.00 0.00 0.00 47 1020.8
20220628200033 20 150 1.6 17.7 0.00 0.00 0.00 49 1020.7
20220628194536 20 200 0.0 14.5 0.00 0.00 0.00 50 1020.7
20220628193041 20 241 3.2 11.3 0.00 0.00 0.00 48 1020.8
20220628191545 20 153 0.0 9.7 0.00 0.00 0.00 50 1020.8
20220628190047 19 137 1.6 11.3 0.00 0.00 0.00 49 1020.7
20220628184532 19 145 1.6 11.3 0.00 0.00 0.00 49 1020.6
20220628183037 19 127 1.6 16.1 0.00 0.00 0.00 49 1020.6
20220628181537 18 220 1.6 11.3 0.00 0.00 0.00 51 1020.5
20220628180041 18 169 3.2 14.5 0.00 0.00 0.00 52 1020.4
20220628174545 18 139 1.6 11.3 0.00 0.00 0.00 52 1020.4
20220628173053 17 178 3.2 14.5 0.00 0.00 0.00 53 1020.4
20220628171553 17 255 4.8 12.9 0.00 0.00 0.00 53 1020.4
20220628170045 17 170 1.6 14.5 0.00 0.00 0.00 55 1020.4
20220628164549 16 155 3.2 12.9 0.00 0.00 0.00 56 1020.4
20220628161519 16 294 3.2 9.7 0.00 0.00 0.00 57 1020.4
20220628160022 16 210 3.2 9.7 0.00 0.00 0.00 58 1020.5
20220628154526 15 186 3.2 12.9 0.00 0.00 0.00 58 1020.5
20220628153040 15 136 1.6 8.0 0.00 0.00 0.00 59 1020.6
20220628151533 15 195 0.0 9.7 0.00 0.00 0.00 60 1020.7
20220628150039 14 224 1.6 8.0 0.00 0.00 0.00 60 1020.7
20220628144542 14 210 0.0 8.0 0.00 0.00 0.00 61 1020.7
20220628143045 14 134 1.6 8.0 0.00 0.00 0.00 61 1020.5
20220628141541 13 193 0.0 9.7 0.00 0.00 0.00 62 1020.3
20220628140102 13 214 0.0 9.7 0.00 0.00 0.00 62 1020.1
20220628134547 13 221 1.6 6.4 0.00 0.00 0.00 64 1020.0
20220628133050 12 134 0.0 6.4 0.00 0.00 0.00 65 1020.0
20220628131554 12 181 0.0 4.8 0.00 0.00 0.00 66 1019.9
20220628130108 12 197 0.0 8.0 0.00 0.00 0.00 67 1019.8
20220628124543 11 132 0.0 8.0 0.00 0.00 0.00 68 1019.7
20220628123047 11 130 0.0 3.2 0.00 0.00 0.00 68 1019.6
20220628121547 11 137 0.0 3.2 0.00 0.00 0.00 68 1019.5
20220628120058 11 133 0.0 9.7 0.00 0.00 0.00 69 1019.5
20220628114554 11 135 0.0 1.6 0.00 0.00 0.00 68 1019.2
20220628113057 12 131 0.0 1.6 0.00 0.00 0.00 68 1019.0
20220628111601 12 164 0.0 1.6 0.00 0.00 0.00 68 1018.9
20220628110105 12 176 0.0 6.4 0.00 0.00 0.00 68 1018.8
20220628104502 12 231 0.0 8.0 0.00 0.00 0.00 67 1018.8
20220628103007 12 150 0.0 3.2 0.00 0.00 0.00 66 1018.8
20220628101511 12 204 0.0 4.8 0.00 0.00 0.00 65 1018.7
20220628100011 12 158 0.0 9.7 0.00 0.00 0.00 64 1018.5
20220628094516 12 235 0.0 6.4 0.00 0.00 0.00 64 1018.6
20220628093023 12 118 1.6 8.0 0.00 0.00 0.00 64 1018.6
20220628091521 12 232 0.0 4.8 0.00 0.00 0.00 66 1018.5
20220628090030 12 172 0.0 4.8 0.00 0.00 0.00 66 1018.6
20220628084527 12 214 0.0 3.2 0.00 0.00 0.00 66 1018.5
20220628083030 12 223 0.0 3.2 0.00 0.00 0.00 67 1018.3
20220628081535 12 235 0.0 0.0 0.00 0.00 0.00 68 1018.3
20220628080039 12 231 0.0 1.6 0.00 0.00 0.00 68 1018.2
20220628074542 12 203 0.0 3.2 0.00 0.00 0.00 67 1018.1
20220628073046 13 235 0.0 1.6 0.00 0.00 0.00 66 1018.0
20220628071554 13 178 0.0 3.2 0.00 0.00 0.00 65 1017.9
20220628070052 13 210 0.0 4.8 0.00 0.00 0.00 64 1017.7
20220628064637 13 342 0.0 8.0 0.00 0.00 0.00 63 1017.5
20220628063003 13 181 0.0 4.8 0.00 0.00 0.00 63 1017.5
20220628061506 14 305 0.0 6.4 0.00 0.00 0.00 63 1017.4
20220628060010 15 79 0.0 9.7 0.00 0.00 0.00 61 1017.1
20220628054514 15 249 1.6 9.7 0.00 0.00 0.00 59 1016.9
20220628053018 16 302 1.6 11.3 0.00 0.00 0.00 58 1016.9
20220628051523 16 250 3.2 9.7 0.00 0.00 0.00 55 1016.5
20220628050026 17 310 1.6 9.7 0.00 0.00 0.00 54 1016.1
20220628044529 17 233 1.6 9.7 0.00 0.00 0.00 52 1015.8
20220628043034 18 359 4.8 11.3 0.00 0.00 0.00 50 1015.6
20220628041538 19 314 4.8 16.1 0.00 0.00 0.00 47 1015.5
20220628040041 21 307 3.2 12.9 0.00 0.00 0.00 42 1015.2
20220628034546 23 253 0.0 4.8 0.00 0.00 0.00 36 1014.9
20220628033056 25 215 0.0 6.4 0.00 0.00 0.00 25 1014.8
20220628031555 28 148 0.0 4.8 0.00 0.00 0.00 19 1014.5